Temp_Advection
nan nan nan nan nan nan nan nan nan nan nan nan nan nan nan nan nan nan nan nan nan nan
nan 0 0 0 0 0 0 0 0 0 -0 -0 -0 0 -0 -0 -0 -0 -0 -1 -1 nan
nan 0 0 0 -0 -0 0 0 0 0 0 -0 -0 -0 -0 -0 -0 -0 -0 -0 -0 nan
nan 0 0 0 -0 -0 0 0 0 0 0 0 0 -0 -0 -0 -0 -0 -0 0 0 nan
nan 0 0 -0 0 0 0 0 0 0 0 0 0 -0 -0 -0 -0 -0 0 0 0 nan
nan -0 -1 -1 -0 1 0 0 0 0 0 0 0 -0 -0 -0 -0 -0 0 0 0 nan
nan -0 -0 -0 0 1 0 0 0 0 0 0 0 0 -0 -0 -0 -0 -0 -0 -0 nan
nan 0 1 0 1 0 0 0 0 0 0 0 0 0 -0 -0 -0 -0 -0 -0 -0 nan
nan 0 0 1 1 0 0 0 -0 0 0 0 0 -0 -0 0 0 -0 -0 0 0 nan
nan -0 0 0 0 0 0 -0 -0 0 0 0 -0 -0 -0 0 0 0 -0 0 0 nan
nan -0 -0 0 -0 0 0 0 1 0 0 -0 -0 -0 0 0 0 0 -0 -0 -0 nan
nan -0 -0 -0 -0 -0 0 0 0 0 -0 -1 -0 0 0 0 0 0 -0 -1 -1 nan
nan -0 -0 -0 -0 0 0 0 -0 -0 -0 -0 -0 -0 0 0 0 0 0 -0 -1 nan
nan nan nan nan nan nan nan nan nan nan nan nan nan nan nan nan nan nan nan nan nan nan
Wind_Speed
12 12 12 11 12 10 11 11 11 11 9 8 8 8 9 10 10 11 12 11 10 7
15 14 14 14 13 13 12 12 10 10 8 8 7 7 8 8 9 11 10 10 10 7
16 16 16 16 14 13 14 12 10 9 8 7 6 6 6 8 9 9 9 8 10 10
17 17 17 16 16 14 14 13 11 9 8 7 6 5 6 7 8 8 9 10 10 11
19 18 17 16 17 16 14 13 11 10 8 6 5 4 4 5 6 7 8 9 9 11
20 20 19 19 18 17 15 13 11 10 8 6 4 3 3 4 5 6 8 10 10 11
22 22 21 20 19 17 15 14 12 10 8 6 4 2 1 3 4 6 8 10 11 11
23 22 21 20 19 17 16 13 12 11 9 7 5 2 0 2 4 6 8 11 11 12
24 22 22 21 20 19 17 15 13 12 10 8 6 3 2 3 4 5 7 8 10 12
24 23 23 21 20 19 18 16 15 13 11 9 8 5 3 4 4 5 7 9 11 10
26 24 23 22 21 20 18 17 15 14 12 10 9 5 4 4 5 5 8 10 11 12
27 26 25 24 24 21 19 17 15 14 13 11 9 6 5 5 5 5 7 11 12 14
28 27 25 24 25 22 19 17 15 14 13 12 10 7 6 6 5 6 6 8 12 16
29 28 26 25 24 23 20 17 17 15 13 12 11 8 7 6 6 5 8 7 7 15
Wind_Direction
179 170 164 158 160 153 157 149 136 125 120 106 98 91 86 76 70 62 56 50 51 29
172 169 165 166 164 161 161 151 144 136 126 107 99 91 83 78 64 55 47 35 36 31
173 169 171 167 164 162 161 161 156 147 139 122 104 88 81 69 58 51 42 27 27 23
174 173 172 169 170 173 168 164 165 158 143 136 117 94 71 63 55 46 30 26 18 11
175 175 172 176 175 176 173 172 171 162 155 146 120 92 78 65 49 39 25 18 15 6
177 178 177 179 179 176 176 173 172 170 167 156 137 113 74 48 38 26 17 11 9 2
179 183 184 183 182 179 179 178 178 176 177 172 164 148 70 30 21 15 4 4 1 353
182 183 184 183 182 182 181 180 181 183 185 184 185 193 344 354 4 5 359 355 354 336
182 181 184 184 184 187 183 184 184 187 192 195 190 206 287 325 344 352 349 350 342 346
181 181 185 184 184 188 187 190 191 194 197 200 218 220 267 309 325 332 331 341 342 348
183 183 185 185 187 190 191 195 196 197 198 205 224 226 266 297 309 317 322 333 335 338
186 184 186 188 190 191 193 194 195 198 204 205 231 231 257 287 298 305 316 320 327 334
187 187 189 191 193 193 194 195 193 196 207 214 229 227 249 274 287 292 295 312 313 329
189 189 191 191 194 194 192 193 194 197 209 217 223 236 245 264 282 279 293 302 302 305
Height
1546 1549 1551 1554 1557 1559 1561 1562 1561 1562 1566 1566 1566 1567 1566 1565 1566 1565 1563 1564 1563 1564
1546 1548 1552 1555 1558 1559 1559 1561 1562 1563 1566 1566 1570 1569 1567 1567 1566 1565 1565 1565 1563 1564
1545 1548 1550 1553 1556 1558 1558 1560 1563 1564 1565 1566 1569 1570 1569 1567 1566 1566 1566 1565 1563 1563
1543 1546 1549 1551 1553 1556 1558 1560 1563 1565 1565 1567 1568 1569 1569 1568 1567 1566 1567 1565 1564 1562
1541 1544 1547 1550 1552 1555 1558 1560 1563 1565 1566 1567 1567 1568 1569 1570 1567 1567 1567 1566 1564 1562
1538 1542 1545 1548 1551 1554 1557 1560 1562 1564 1566 1566 1566 1569 1569 1569 1568 1568 1567 1565 1563 1561
1536 1540 1543 1547 1550 1553 1557 1559 1561 1563 1564 1565 1566 1568 1568 1568 1568 1567 1566 1564 1562 1560
1532 1537 1541 1545 1548 1552 1555 1558 1560 1561 1563 1564 1566 1567 1567 1567 1567 1566 1565 1563 1562 1560
1530 1535 1539 1542 1546 1550 1553 1556 1558 1560 1561 1563 1565 1566 1566 1566 1566 1565 1564 1563 1561 1559
1527 1532 1536 1540 1545 1548 1551 1553 1556 1558 1560 1561 1562 1564 1564 1564 1564 1564 1563 1561 1560 1558
1524 1529 1533 1538 1542 1546 1548 1551 1553 1556 1558 1560 1560 1562 1562 1563 1562 1562 1561 1560 1558 1556
1520 1526 1529 1534 1538 1542 1546 1549 1552 1554 1556 1557 1558 1559 1560 1560 1560 1560 1559 1557 1555 1553
1516 1522 1526 1530 1534 1538 1543 1546 1549 1552 1553 1554 1556 1557 1558 1559 1559 1558 1558 1556 1554 1551
1512 1517 1522 1526 1530 1535 1539 1544 1546 1548 1550 1551 1553 1554 1556 1557 1557 1556 1555 1555 1554 1549